Showing default

QIANFAN-68, 62798

Orbit data source: Space-Track

QIANFAN-68, 62798 is a Chinese payload satellite in LEO that was launched on Thu, 23 Jan 2025 UTC via a CHANG ZHENG 6A launch vehicle from the Taiyaun Space Center, China (TSC). Payload-class satellites include a variety of spacecraft equipped with specific instruments for various scientific and technological missions. These include communications satellites like Starlink; space stations such as the ISS; scientific satellites like the Hubble; Earth observation satellites from companies like Planet Labs, Umbra, and HawkEye 360; GPS; miniature CubeSats for education and research; and military/defense satellites.

Loading next visibility...
Identifier
62798, 2025-016P
Orbit
LEO
Country
Flag of CNCN / PRC
Related business
Manufacturer
SECM
Mission
Operational Commercial Communications
Bus & Motor
QIANFAN, Unknown motor
Mass
267 kg wet, ~267 kg dry
Launch date (UTC)
2025-01-23 (1 year ago)
Launch vehicle
CHANG ZHENG 6A
Launch site
Taiyaun Space Center, China (TSC)
Object type
Payload
Rocket body
Debris
Shape & HBR
Box + 1 Pan, 1.3 m
Radar Cross Section
13.200 m², Large (>1 m²)

Expand to show TLE details & history
Last TLE update: 6 hours ago

TLE from 6 hours ago
0 QIANFAN-68
1 62798U 25016P   26035.82199954  .00000124  00000-0  17387-3 0  9995
2 62798  88.9734  97.5135 0015484 180.2013 179.9134 13.50990141 54545
Epoch: 2026-02-04T19:43Z
TLE epoch observation values (Epoch: 2026-02-04T19:43:40.760Z)
Latitude
-0.00007°
Longitude
26.61059°
Altitude
1,083.104 km
Speed
7.305 km/s
True Right ascension
06h 30m 03s
True Declination
0° 00' 00"
Sunlit
Object was in full shadow at epoch
Visualization orbit readout
Latitude
Unknown
Longitude
Unknown
Altitude
Unknown
Speed
Unknown
Apparent Right ascension
Unknown
Apparent Declination
Unknown
Sunlit
N/A
Visualization observer readout
Local Sidereal Time
03:18:47
Azimuth
Unknown
Elevation
Unknown
Doppler factor
Unknown
Orbital elements
Apogee altitude
1,077.195 km
Perigee altitude
1,054.143 km
Semi-major axis
7,443.806 km
Eccentricity
0.00155
Inclination
88.9734°
RAAN
97.5135°
Arg. of periapsis
180.2013°
True anomaly
179.91367°
Mean anomaly
179.9134°
Eccentric anomaly
179.91353°
Mean motion
3.37949 °/min
Orbital period
106.53 mins
BSTAR
0.00017387
Loading maneuver chart data...
Computing Atmospheric mass density...
Loading historical data...
Loading historical data...
Loading historical data...
Loading historical data...
Loading historical data...
Loading historical data...
Loading historical data...

Documentation

Showing up to 5 results
|